{"data":{"norad_id":65669,"epoch":"2026-05-25T02:31:17.592672Z","epoch_age_seconds":59737,"freshness":"FRESH","line1":"1 65669U 25211T   26145.10506473  .00002972  00000+0  20991-3 0  9990","line2":"2 65669  97.4456 189.0753 0002546 110.5314 249.6187 15.05661635 38549","mean_motion":15.05661635,"eccentricity":0.0002546,"inclination_deg":97.4456,"raan_deg":189.0753,"arg_perigee_deg":110.5314,"mean_anomaly_deg":249.6187,"bstar":0.00020991,"rev_number":3854,"period_min":95.639017859414,"perigee_km":547.71169492634,"apogee_km":551.23923519355,"semimajor_km":6927.6124650599,"source":"CELESTRAK","updated_at":"2026-05-25T13:38:20.891515Z"}}